Weather Roundup
Issued by NWS Corpus Christi, TX

Home | Current Version | Previous Version | Text Only | Print | Product List | Glossary On
Versions: 1 2 3 4 5 6 7 8 9 10 11 12 13 14 15 16 17 18 19 20 21 22 23 24 25 26 27 28 29 30 31 32 33 34 35 36 37 38 39 40 41 42 43 44 45 46 47 48 49 50
000
ASUS44 KCRP 231010
HRRCRP

SOUTH TEXAS REGIONAL WEATHER ROUNDUP
NATIONAL WEATHER SERVICE CORPUS CHRISTI TX
500 AM CDT WED JUL 23 2014


TXZ229>244-231100-
...CORPUS CHRISTI AREA OBSERVATIONS...

CITY           SKY/WX    TMP DP  RH WIND       PRES   REMARKS
CORPUS CHRISTI MOCLDY    78  76  93 SE6       30.01S
NAS CORPUS CHR MOCLDY    82  79  90 S9        30.01R HX  92
ROCKPORT       CLEAR     81  77  88 S3        30.01S
KINGSVILLE NAS CLEAR     79  78  97 S6        30.00F
ALICE          PTCLDY    79  77  94 S12       30.00F FOG
FALFURRIAS       N/A     62  62 100 E5        30.00S
$$

...VICTORIA AREA OBSERVATIONS...

CITY           SKY/WX    TMP DP  RH WIND       PRES   REMARKS
VICTORIA       MOCLDY    79  78  97 CALM      30.02S
BEEVILLE       MOCLDY    77  77 100 S3        30.01F FOG
PLEASANTON     CLEAR     76  73  91 CALM      30.03F FOG
SAN ANTONIO    PTCLDY    79  75  87 S5        30.05S
$$

...LAREDO AREA OBSERVATIONS...

CITY           SKY/WX    TMP DP  RH WIND       PRES   REMARKS
LAREDO         CLEAR     82  74  77 SE9       30.02F
COTULLA        CLEAR     79  74  84 E6        30.01F
DEL RIO        PTCLDY    80  68  66 E6        30.03S
MCALLEN        CLEAR     80  77  90 SE7       30.00F
HEBBRONVILLE   PTCLDY    77  74  91 CALM      30.02S FOG
$$

...OTHER TEXAS OBSERVATIONS...

CITY           SKY/WX    TMP DP  RH WIND       PRES   REMARKS
BROWNSVILLE    CLEAR     77  76  96 S3        30.00F
HOUSTON        PTCLDY    77  75  93 CALM      30.02R
COL. STATION   MOCLDY    78  74  87 CALM      30.03F
AUSTIN         PTCLDY    76  72  87 SW5       30.03S
WACO           CLEAR     74  72  93 CALM      30.07R FOG
FORT WORTH     CLEAR     78  69  73 CALM      30.08S
WICHITA FALLS  CLEAR     74  71  91 S6        30.10R
LUBBOCK        PTCLDY    72  62  71 E8        30.23R
EL PASO        LGT RAIN  73  69  87 CALM      30.19F
$$

...MARINE OBSERVATIONS...

STATION/POSITION TIME  SKY/WX   TEMP    WIND        PRES    VSBY  WAVE   SWELL
                                AIR SEA DIR/SP/G                  HT/PER HT/PER
                 (UTC)          (F)     (DEG/KT/KT) (MB)    (MI)  (FT/S) (FT/S)
PORT ARANSAS     1000            82 87  180/ 10/ 11 1016.2F
BUOY 90 E PORT A 1000            83 84  200/  8/  8 1016.6F         2/ 6   2/ 6
BUOY 45 SE BAFFI 1000            82 82  190/  8/ 10 1015.7F         2/ 6   2/ 6
BUOY 200 E PT IS 1000            83 85  180/  6/  8 1016.0F         1/ 5   2/ 5
BUOY 15 E GALVES 0900            84 86  260/ 10/ 10 1015.6F
$$


USA.gov is the U.S. government's official web portal to all federal, state and local government web resources and services.